Hourly Weather Roundup
Issued by NWS Central Illinois

Home | Current Version | Previous Version | Text Only | Print | Product List | Glossary On
Versions: 1 2 3 4 5 6 7 8 9 10 11 12 13 14 15 16 17 18 19 20 21 22 23 24 25 26 27 28 29 30 31 32 33 34 35 36 37 38 39 40 41 42 43 44 45 46 47 48 49 50
000
NZUS43 KILX 040010
HWRILX

AREA WEATHER ROUNDUP
NATIONAL WEATHER SERVICE, LINCOLN IL
700 PM CDT TUE MAY 03 2016


CITY           SKY/WX    TMP DP  RH WIND       PRES   REMARKS
BLOOMINGTON    PTCLDY    63  39  41 W10       29.87F
6HR MIN TEMP:  62; 6HR MAX TEMP:  67;

CHAMPAIGN      CLOUDY    62  42  47 W9        29.86F
6HR MIN TEMP:  61; 6HR MAX TEMP:  66;

DANVILLE       CLOUDY    60  46  59 CALM      29.83F
6HR MIN TEMP:  59; 6HR MAX TEMP:  64;

DECATUR        CLOUDY    63  42  46 W10       29.88F
6HR MIN TEMP:  61; 6HR MAX TEMP:  66; 6HR PCP: TRACE;

EFFINGHAM      CLOUDY    61  48  64 SW6       29.92S
FLORA          MOCLDY    61  45  55 W12       29.92S
6HR MIN TEMP:  61; 6HR MAX TEMP:  67;

GALESBURG      PTSUNNY   64  40  42 SW9       29.85F
JACKSONVILLE   PTCLDY    63  43  48 SW8       29.89F
6HR MIN TEMP:  62; 6HR MAX TEMP:  67;

LACON          CLOUDY    64  37  36 W8        29.83S
6HR MIN TEMP:  64; 6HR MAX TEMP:  68;

LAWRENCEVILLE  PTCLDY    63  42  46 W9        29.89F
6HR MIN TEMP:  59; 6HR MAX TEMP:  65;

LITCHFIELD     PTCLDY    59  44  56 W9        29.92F
$$


CITY           SKY/WX    TMP DP  RH WIND       PRES   REMARKS
LINCOLN        PTCLDY    65  41  41 CALM      29.87S
6HR MIN TEMP:  64; 6HR MAX TEMP:  69;

MACOMB         CLOUDY    64  42  44 SW8       29.88F
MATTOON        CLOUDY    60  41  49 W8        29.88F
6HR MIN TEMP:  60; 6HR MAX TEMP:  65;

MT CARMEL AP   PTCLDY    61  45  55 W6        29.89F
OLNEY-NOBLE AP MOCLDY    61  45  55 W8        29.91S
PARIS          CLOUDY    60  49  66 W6        29.88S
6HR MIN TEMP:  60; 6HR MAX TEMP:  65;

PEORIA         PTCLDY    64  36  35 W10       29.85F
6HR MIN TEMP:  63; 6HR MAX TEMP:  69;

PONTIAC        MOCLDY    64  41  43 W9        29.84F
RANTOUL        CLOUDY    64  45  49 W7        29.86S
6HR MIN TEMP:  63; 6HR MAX TEMP:  68;

ROBINSON       MOCLDY    59  45  60 W5        29.89F
6HR MIN TEMP:  57; 6HR MAX TEMP:  64;

SPRINGFIELD    PTCLDY    65  43  44 W14       29.88F
6HR MIN TEMP:  64; 6HR MAX TEMP:  68;

TAYLORVILLE    PTCLDY    61  46  58 SE9       29.90F
$$

...REGIONAL REPORTS...


CITY           SKY/WX    TMP DP  RH WIND       PRES   REMARKS
CHICAGO O`HARE CLOUDY    63  38  39 W12G22    29.77F
KANKAKEE       MOCLDY    63  38  40 W8        29.82F
MOLINE         MOSUNNY   65  40  39 W13       29.81F
MOUNT STERLING SUNNY     63  38  39 W7        29.88F
MOUNT VERNON   CLOUDY    61  43  51 CALM      29.94F
PITTSFIELD     SUNNY     65  41  41 W8        29.91F
QUINCY         PTSUNNY   64  39  39 W7        29.89F
ROCKFORD       CLOUDY    64  40  41 W13       29.79F
$$


CITY           SKY/WX    TMP DP  RH WIND       PRES   REMARKS
BURLINGTON     MOSUNNY   64  45  49 W9        29.85F
CEDAR RAPIDS   CLOUDY    63  45  51 W13       29.79F
DES MOINES     PTSUNNY   67  42  40 W12       29.85F
KIRKSVILLE     SUNNY     65  40  39 W13       29.91F
OTTUMWA        CLOUDY    63  44  50 W9        29.85F
ST LOUIS       PTCLDY    64  42  44 W9        29.94F
$$


CITY           SKY/WX    TMP DP  RH WIND       PRES   REMARKS
TERRE HAUTE    MOCLDY    62  40  44 W6        29.87F
EVANSVILLE     MOCLDY    61  41  47 W8        29.92S
INDIANAPOLIS   PTCLDY    59  38  45 SW3       29.85F
LAFAYETTE      CLOUDY    59  42  53 W3        29.83F
MADISON        CLOUDY    64  37  36 VRB7      29.70F
MILWAUKEE      CLOUDY    65  34  31 W13       29.72F
$$






USA.gov is the U.S. government's official web portal to all federal, state and local government web resources and services.